Location: Marengo
(51.4813°N, 109.7825°W)
Time: 21:55:24
(UTC+00:00)

Envisat - Pass Details

Date: 31 January 2022
Orbit: 764 x 765 km, 98.2° (Epoch: 21 May)

Event Time Altitude Azimuth Distance (km) Brightness Sun altitude
Rises 12:49:40 0° 12° (NNE) 3,244 6.4 -20.1°
Reaches altitude 10° 12:52:00 10° 9° (N) 2,314 5.5 -19.7°
Maximum altitude 12:57:00 61° 290° (WNW) 873 3.0 -18.9°
Drops below altitude 10° 13:02:00 10° 211° (SSW) 2,299 5.2 -18.2°
Sets 13:04:18 0° 208° (SSW) 3,222 6.0 -17.8°
